sat.trackr.live / text

‹ back to catalog

ONEWEB-0403

NORAD 50483 · 2021-132Q

PAYLOAD ACTIVE UNKNOWN

§ Identity

Operator
Country
UK
Launch date
2021-12-27
Launch site
TYMSC
Launch vehicle
Mass (kg)
RCS (m²)

Purposes: comms

External: N2YO · Heavens-Above · Gunter

§ Orbital elements

Epoch: 2026-09-19T23:08:07.154880Z

Period
109.20 min
Inclination
87.9162°
Eccentricity
0.0002009
Mean motion
13.18684110 rev/d
Perigee alt
1,188.2 km
Apogee alt
1,191.3 km
Semi-major
7,567.9 km
B*
9.0976e-5
RAAN
316.6263°
Arg perigee
100.3372°
Mean anomaly
259.7986°
Rev number
23,408

§ Raw data

ONEWEB-04031 50483U 21132Q   26262.96397170  .00000049  00000+0  90976-4 0  99962 50483  87.9162 316.6263 0002009 100.3372 259.7986 13.18684110234085

JSON: /api/v1/satellites/50483 · /tle

For live sub-satellite position, see the globe view (requires WebGL).

§ Visibility from observer

Set your observer location to see the next 7 days of passes ≥ 10°. The values pass through the URL so the page stays shareable.

No JS? Fill the form by hand. The geolocation button needs JavaScript.